{"data":{"norad_id":65526,"epoch":"2026-05-25T02:45:49.394592Z","epoch_age_seconds":58308,"freshness":"FRESH","line1":"1 65526U 25200G   26145.11515503  .00004430  00000+0  31085-3 0  9992","line2":"2 65526  97.4473 214.8085 0003067 131.8836 228.2654 15.05655452 40645","mean_motion":15.05655452,"eccentricity":0.0003067,"inclination_deg":97.4473,"raan_deg":214.8085,"arg_perigee_deg":131.8836,"mean_anomaly_deg":228.2654,"bstar":0.00031085,"rev_number":4064,"period_min":95.639410602685,"perigee_km":547.36972606032,"apogee_km":551.61913517987,"semimajor_km":6927.6314306201,"source":"CELESTRAK","updated_at":"2026-05-25T13:38:20.847355Z"}}